Dewpoint
5 6 6 6 7 9 10 11 10 10 6 2 3 4 5 5 4 -0 -0 -2 -2 -3 0 2 5 4 3 3 3 2 6 7 6 5 4 1 1 -1 -1 -2 -1 -1 -0 4 5
4 5 5 6 7 7 9 10 11 10 10 6 2 2 4 5 5 3 2 -0 -5 -1 -1 2 2 2 1 2 2 3 6 5 1 -2 1 -0 0 -1 -2 -2 -2 -2 0 6 6
3 4 4 5 6 7 7 9 9 11 10 10 6 1 2 4 4 2 -0 -3 -3 -3 -2 1 -1 0 -1 -1 1 1 3 2 -0 -5 -6 -1 -2 -2 -2 0 -1 -2 -2 3 4
2 3 3 4 5 7 7 7 9 9 10 10 9 5 2 4 5 -1 -2 -2 -10 -2 -2 1 -1 -2 1 2 -1 1 -1 -0 -0 -4 -5 -5 -5 -4 -3 -2 -3 -4 -1 1 5
3 2 3 3 5 5 7 6 7 9 10 10 10 7 3 5 4 3 2 -1 -2 -3 -2 2 -0 -2 1 -1 -2 -0 -1 -2 -1 -4 -4 -4 -4 -4 -4 -4 -5 -5 -6 -0 0
3 2 3 2 3 4 5 6 7 8 8 10 10 8 4 5 0 2 1 -2 -1 -2 -1 1 -2 -3 -3 -2 -2 -3 -3 -3 -4 -4 -4 -4 -4 -4 -5 -6 -6 -5 -6 -6 -5
1 1 1 1 1 2 5 5 6 7 8 10 10 8 7 4 2 -2 -1 -5 2 2 3 0 -2 -2 -5 -3 -5 -5 -3 -4 -4 -5 -4 -4 -3 -3 -5 -6 -7 -8 -8 -6 -6
1 1 1 1 1 0 1 4 6 6 7 9 9 8 8 5 -2 1 1 -0 3 4 3 -0 -3 -1 -3 -4 -4 -4 -4 -1 -5 -6 -5 -4 -2 -6 -8 -8 -8 -8 -8 -8 -7
1 0 1 0 0 1 0 2 5 6 8 8 9 8 7 4 1 -1 2 -1 1 2 3 0 -2 -1 -2 -1 -1 -2 -2 -2 -3 -5 -5 -5 -4 -6 -8 -9 -8 -9 -9 -9 -8
-0 -0 0 0 -1 1 0 -0 2 5 7 9 8 8 7 4 0 -0 1 0 -1 1 1 -0 -2 -1 -1 -1 1 -1 -1 -3 -2 -4 -5 -4 -4 -6 -7 -7 -7 -7 -7 -9 -9
-1 -1 -1 0 1 1 0 -1 1 8 8 8 8 6 3 3 -2 -1 -1 -2 -2 0 1 -1 -0 0 -1 -2 -3 -4 -3 -2 -4 -4 -3 -2 -2 -3 -5 -6 -5 -6 -6 -7 -8
-1 -0 -0 -3 -1 1 1 1 2 4 4 5 8 7 5 1 -1 -2 -2 -3 -3 2 0 -0 1 -2 -4 -3 -3 -3 -2 -2 -3 -5 -2 -2 -1 -3 -4 -4 -5 -5 -5 -6 -7
-2 -1 -1 -4 -2 -3 -1 1 1 2 4 4 6 8 5 5 1 -2 -3 -4 -2 1 1 1 -1 -3 -3 -3 -2 -3 -2 -2 -2 -3 -3 -2 -1 -2 -3 -4 -4 -5 -6 -7 -7
-1 -2 -1 -5 -3 2 2 2 3 4 5 5 5 7 6 2 2 -1 -3 -4 -1 1 0 0 -3 -2 -2 -2 -3 -1 -3 -2 -2 -0 2 -3 2 -2 -3 -4 -5 -5 -6 -6 -6
-2 -3 -1 -2 -3 -0 1 2 1 3 6 2 5 6 6 4 4 2 -1 -4 -2 -1 -0 1 -0 -1 -1 -2 -4 -2 -2 -1 -1 -0 0 0 1 -1 -3 -3 -4 -5 -8 -10 -7
-2 -4 -3 -1 -0 -1 1 1 1 4 6 6 5 6 7 4 3 1 -2 -3 -4 -2 -1 -1 -2 -1 -1 -2 -3 -3 -2 -1 -1 0 3 0 -0 -1 -2 -3 -6 -7 -7 -7 -7
-3 -5 -3 -1 -2 -2 1 1 2 4 5 7 6 6 7 7 5 4 1 -1 -1 0 1 -0 -0 -2 -2 -0 -1 -2 0 4 5 5 4 -2 -1 -2 -3 -4 -5 -7 -8 -8 -6
-4 -5 -5 -4 -3 -0 0 2 2 -0 0 5 6 5 7 5 5 2 4 0 -3 -1 1 2 3 0 -1 -0 1 -0 0 3 5 5 3 -2 1 -1 -4 -8 -8 -8 -8 -7 -7
-3 -5 -4 -6 -1 -0 1 1 1 -4 0 4 3 8 7 6 5 5 2 1 -0 -1 2 2 2 -1 -1 -2 -1 1 2 -1 2 1 2 0 -2 -4 -6 -6 -7 -8 -7 -5 -4
-2 -2 -4 -7 -2 0 1 -0 -2 -7 -3 4 7 7 8 6 4 6 7 2 1 -1 -2 -0 3 -1 -1 -2 -2 -0 -1 3 2 4 5 2 1 1 -3 -4 -7 -7 -7 -4 -3
-3 -1 -5 -2 -0 1 1 0 -3 -5 -5 3 5 7 6 6 6 5 6 2 -0 -0 -2 -1 1 1 -1 1 1 0 1 0 0 1 4 4 2 -5 -3 -6 -6 -6 -6 -5 -3
-1 1 -3 -1 1 1 2 -1 -4 -6 -7 -4 -0 3 6 6 6 6 4 2 -1 -1 1 -1 1 4 1 -2 -2 -2 -1 -1 2 3 1 2 2 -6 -7 -6 -6 -6 -7 -5 -3
-1 -1 -4 -2 1 1 -1 -3 -2 -4 -5 -1 2 1 1 5 7 4 2 -1 -1 -1 0 -1 2 5 3 0 -2 -0 -1 -1 -1 -0 1 2 1 -5 -6 -6 -6 -6 -6 -6 -3
-2 -0 -3 -1 -1 0 0 1 -0 -4 -4 -6 -3 -0 2 5 4 5 4 2 -1 -0 -1 -1 1 3 5 3 -1 1 -0 -1 -1 1 1 1 -0 -3 -5 -6 -7 -6 -6 -7 -6
-2 -1 -2 -0 -1 -0 -2 -0 -0 -0 -4 -6 -5 -4 3 5 6 4 2 1 3 1 3 -0 3 1 1 1 -1 -1 -0 -1 0 -0 1 -0 -1 -2 -3 -3 -4 -5 -6 -6 -6
-2 -0 -1 -2 -4 -4 -4 -3 -3 -1 -1 -1 -3 -4 -2 3 3 6 5 2 2 1 1 -0 3 2 2 1 0 1 -1 -1 -1 -1 -1 -1 -1 -4 -5 -5 -6 -6 -6 -5 -6
-2 -2 -1 -4 -5 -4 -3 -5 -2 -1 -2 -2 -2 -3 -3 -0 2 3 4 5 5 0 1 1 2 2 4 1 1 3 -0 -1 -1 -2 -2 -0 -2 -4 -4 -4 -5 -5 -5 -5 -5
Wind_Speed
25 24 22 22 25 26 24 19 23 22 21 20 21 20 19 18 20 19 21 9 8 11 8 6 7 8 7 11 9 7 4 6 8 5 4 13 5 3 2 4 2 5 5 21 22
27 25 25 24 22 26 26 25 21 24 24 22 21 20 20 20 22 26 21 16 17 14 13 11 11 11 13 13 8 6 4 4 7 7 4 10 9 11 4 6 6 7 8 13 15
21 25 25 25 24 22 26 26 25 25 26 24 22 20 18 16 20 9 7 10 18 16 15 12 13 14 15 15 16 14 11 11 5 6 4 3 3 2 4 5 13 17 22 18 17
24 22 24 25 25 22 25 27 27 27 24 26 24 21 16 11 6 2 4 3 11 16 16 11 16 17 10 11 16 12 19 23 5 5 0 4 6 2 9 11 4 1 11 17 17
26 23 22 23 22 25 23 25 28 28 28 25 25 20 16 10 23 16 19 17 8 17 18 16 17 17 10 12 15 13 10 16 10 5 6 9 6 7 12 13 14 9 11 16 17
24 24 23 23 23 23 26 28 24 29 33 27 26 20 16 18 22 12 19 19 15 19 19 18 17 16 16 19 10 7 17 20 10 12 12 8 12 16 14 14 19 19 19 20 17
25 25 22 25 22 24 24 27 27 26 30 28 25 21 18 31 8 9 14 15 14 17 20 19 19 11 7 8 17 7 5 8 10 12 8 10 8 10 27 24 21 21 18 19 19
26 26 24 25 23 23 28 26 27 25 26 27 26 21 17 23 23 24 11 11 15 17 21 16 17 12 16 3 2 3 7 7 8 14 9 9 8 13 2 11 11 16 20 22 23
25 27 25 26 23 23 25 31 26 25 22 23 25 20 10 16 31 25 26 18 12 15 19 15 16 16 14 6 6 7 5 14 8 4 7 7 6 1 7 6 8 13 16 19 21
26 26 25 25 21 23 26 28 26 25 22 22 29 14 19 20 16 24 28 28 20 16 17 17 10 9 12 8 10 7 12 8 8 8 6 8 10 11 16 14 19 20 21 19 22
25 24 26 24 20 21 25 25 13 10 21 23 15 19 3 10 13 24 23 25 23 20 15 21 11 16 18 15 12 15 10 9 6 12 8 9 8 10 17 20 17 20 21 23 24
23 21 23 23 20 19 19 11 8 7 12 21 30 32 34 4 14 20 24 27 27 16 18 11 20 17 16 16 17 16 12 8 7 3 7 7 10 11 10 17 24 22 24 25 26
26 23 23 24 21 21 17 16 15 14 8 12 24 29 17 26 23 20 33 34 21 21 23 21 15 17 18 16 15 14 12 7 8 6 4 7 12 15 14 25 28 29 25 25 26
26 23 22 24 16 10 11 10 9 9 5 6 11 20 35 14 12 30 34 35 12 24 21 19 21 23 20 17 15 14 7 8 8 4 5 3 5 10 14 11 9 20 24 28 29
27 24 21 19 22 17 15 21 25 8 6 10 16 13 34 24 9 27 28 36 19 15 19 18 19 18 19 22 14 10 5 5 6 5 6 10 7 6 11 10 10 6 3 1 4
27 23 21 20 14 18 14 12 13 6 7 5 9 18 21 27 26 11 26 36 31 16 16 19 18 15 12 9 9 6 5 2 5 2 7 12 11 5 8 10 2 5 10 11 9
32 28 22 20 25 13 13 6 3 6 3 6 6 16 29 23 25 18 22 24 20 20 20 15 17 4 6 11 9 7 7 3 4 4 6 9 9 9 7 7 4 5 4 7 7
32 32 27 25 20 16 15 4 10 8 15 6 3 19 23 19 21 28 28 21 24 17 11 16 12 15 8 11 13 14 15 5 6 5 4 2 6 5 8 1 2 1 3 5 7
31 30 29 26 16 20 16 10 6 13 5 8 9 15 19 23 14 22 18 27 29 23 15 18 15 16 16 7 15 8 15 13 8 14 4 5 5 5 7 8 2 4 2 3 5
27 26 36 25 21 20 12 17 12 18 12 9 5 10 10 23 17 22 24 23 27 29 22 9 9 15 11 14 14 12 10 7 6 4 5 5 7 5 8 10 8 4 4 2 3
21 12 24 7 13 16 6 8 17 30 23 4 5 6 14 15 19 26 24 17 31 29 22 18 8 6 14 11 15 12 11 6 6 9 4 1 5 1 11 10 9 2 9 4 6
12 5 7 8 6 4 7 10 18 16 23 17 7 6 9 9 19 21 27 24 36 25 31 22 9 12 18 10 10 18 22 16 6 5 11 9 9 2 7 8 9 5 9 5 8
6 11 16 13 4 4 9 18 22 20 19 4 8 13 11 11 7 27 19 28 23 30 28 24 8 12 12 8 9 10 15 11 14 6 16 7 5 4 8 9 13 10 7 5 9
5 3 6 11 10 4 2 8 16 26 21 20 12 9 14 11 15 10 28 10 16 9 29 25 13 19 17 16 8 13 17 19 17 15 12 20 14 4 8 8 9 13 13 16 13
5 4 7 3 4 4 5 2 12 8 16 23 15 18 12 4 12 16 16 5 10 16 15 18 21 18 20 10 20 19 18 20 24 25 16 12 16 15 9 9 9 12 8 16 20
5 4 5 8 15 13 8 5 13 17 14 17 21 15 21 21 15 10 19 7 8 17 12 18 19 20 16 20 19 16 18 26 25 22 17 14 23 7 11 14 6 5 5 7 10
13 16 11 8 7 8 8 12 9 12 13 14 20 18 19 26 16 17 25 21 15 11 16 17 12 14 20 14 11 15 25 13 17 17 18 22 19 6 9 9 9 11 8 6 9
Wind_Direction
277 277 287 284 274 265 267 278 283 286 289 290 289 290 293 301 302 299 284 269 285 241 205 170 212 217 214 232 235 256 281 234 229 264 135 120 188 182 309 120 154 154 84 143 172
286 281 275 281 283 271 264 265 280 280 284 287 288 289 292 300 304 297 294 259 250 230 215 194 207 210 214 222 204 233 245 265 12 55 31 146 205 165 171 221 167 137 144 170 174
318 296 281 272 278 285 268 260 260 276 276 283 286 287 290 302 315 287 276 256 238 212 205 213 221 208 225 221 211 223 247 265 102 63 16 136 227 222 185 261 205 198 195 188 183
315 312 302 283 273 281 280 264 256 267 269 275 281 284 282 283 264 250 333 306 218 205 200 218 231 237 232 237 226 236 227 256 329 111 301 236 242 184 226 247 304 80 169 188 193
325 311 308 300 291 275 284 271 259 256 273 266 274 279 271 245 244 247 286 280 248 212 208 218 225 227 222 237 230 229 261 263 224 139 249 274 252 244 265 251 257 253 223 195 208
323 317 309 300 292 289 275 273 268 253 252 259 261 265 254 251 260 268 249 252 242 216 213 216 228 224 234 246 238 225 220 253 205 223 225 235 259 251 246 249 253 246 237 241 221
327 317 307 305 302 282 284 276 269 256 260 260 255 250 238 236 229 224 247 245 223 224 212 218 225 264 231 290 260 255 293 281 254 234 230 226 263 247 253 243 248 251 243 225 233
325 319 311 302 297 305 274 283 274 273 256 260 239 233 242 254 246 238 228 227 205 216 215 221 227 244 254 272 354 228 249 252 239 211 173 139 263 277 143 205 239 249 227 235 228
324 325 316 310 301 297 294 272 274 267 254 250 230 206 239 259 221 225 224 217 216 214 211 227 222 225 240 233 235 205 237 220 253 200 132 166 265 168 155 169 223 245 247 238 232
324 326 320 312 302 297 305 291 264 265 251 239 220 216 245 229 228 225 224 216 208 201 206 214 220 213 231 202 220 215 217 249 222 189 196 195 237 265 259 217 224 233 239 238 224
320 322 325 317 309 300 306 323 287 256 229 201 206 207 193 281 224 214 207 196 206 197 200 195 207 209 212 225 225 253 246 225 234 156 167 217 257 267 266 260 254 254 253 250 239
318 318 321 322 308 299 300 309 284 336 303 266 235 235 250 185 230 212 193 185 200 198 196 197 219 213 216 226 228 248 262 267 284 228 172 219 251 252 268 263 258 254 249 254 249
314 317 322 322 311 298 293 289 289 297 258 274 235 226 208 223 239 217 191 190 193 200 199 211 205 214 227 223 239 228 235 248 246 266 231 265 265 256 252 242 248 251 254 252 253
315 312 315 325 323 324 303 242 294 325 255 230 209 227 217 223 248 223 201 191 189 205 206 216 221 200 217 233 217 239 218 250 276 336 274 318 277 306 302 278 247 243 247 239 238
313 309 307 318 306 302 288 308 304 342 256 176 200 202 203 191 182 227 217 198 214 192 208 214 200 217 199 219 222 228 242 284 264 226 273 267 275 262 241 250 243 149 148 232 175
310 305 303 304 292 286 289 280 309 234 231 195 186 186 172 200 215 212 208 201 213 214 212 224 202 217 213 215 195 220 220 291 308 315 260 234 232 231 232 215 158 162 206 208 213
305 302 292 285 276 283 274 254 234 242 334 208 210 193 188 190 204 191 198 195 204 205 209 211 225 148 209 186 187 187 141 206 228 218 237 229 225 223 279 320 297 112 337 327 221
301 298 282 277 272 266 251 212 235 235 245 303 213 221 204 184 204 187 195 197 206 196 190 198 214 177 179 201 190 189 190 180 201 197 240 83 224 240 228 197 267 346 211 234 228
299 296 283 269 247 240 222 228 219 221 231 293 267 227 217 204 177 196 209 201 197 199 199 194 216 177 163 189 184 183 215 224 292 289 280 229 239 270 242 232 161 72 27 357 210
301 295 280 268 230 225 215 228 240 249 279 339 259 217 206 210 198 175 195 213 205 207 209 180 204 189 167 193 234 184 174 200 223 219 247 239 248 236 207 215 126 77 86 90 208
296 286 288 252 211 216 229 222 235 257 274 240 324 322 269 193 213 186 190 203 210 194 208 220 225 170 150 197 187 208 212 220 181 223 200 230 248 206 205 147 129 106 123 178 202
278 259 294 243 192 209 221 218 239 243 241 238 250 275 266 295 205 227 214 199 191 193 201 206 212 194 203 199 208 206 216 207 210 209 228 244 245 223 92 129 128 114 134 167 188
271 266 276 246 256 276 272 247 240 243 249 244 230 224 257 278 309 219 225 212 213 193 194 194 222 194 204 198 219 218 206 215 233 259 240 214 238 68 173 160 150 156 149 185 180
273 285 248 226 244 282 295 314 270 236 237 247 232 253 293 285 276 256 231 221 237 194 202 187 198 205 198 207 148 193 215 212 210 225 229 233 246 227 153 163 184 197 191 185 188
229 254 266 279 248 231 268 259 300 318 237 231 250 244 248 299 290 261 227 162 166 245 221 180 211 215 230 226 180 196 203 216 221 227 218 228 233 238 235 213 218 227 236 210 189
258 257 308 286 287 279 270 275 290 295 255 238 237 243 227 246 246 304 340 190 193 220 218 175 210 221 233 227 242 213 221 216 223 231 249 250 253 260 282 289 290 228 244 244 221
266 270 254 258 269 283 271 275 277 313 296 295 254 252 247 240 252 251 297 284 308 224 201 180 191 202 225 228 232 245 217 215 214 219 224 235 244 221 249 255 251 237 248 247 248
Height
1514 1513 1512 1512 1512 1512 1513 1512 1513 1513 1512 1510 1510 1509 1508 1507 1505 1504 1499 1500 1500 1501 1502 1503 1505 1506 1507 1506 1506 1506 1507 1505 1495 1492 1491 1492 1497 1499 1500 1502 1504 1506 1509 1512 1513
1509 1507 1506 1506 1506 1506 1507 1508 1508 1508 1509 1507 1507 1506 1506 1504 1501 1497 1496 1496 1497 1499 1500 1501 1503 1504 1505 1504 1505 1505 1507 1495 1487 1489 1491 1494 1496 1498 1501 1502 1504 1506 1510 1512 1513
1506 1504 1502 1500 1500 1500 1500 1502 1504 1504 1505 1504 1504 1503 1504 1503 1500 1492 1491 1491 1494 1496 1498 1501 1501 1502 1502 1501 1501 1501 1504 1491 1490 1492 1494 1495 1497 1498 1499 1501 1501 1502 1503 1507 1510
1502 1500 1497 1495 1495 1494 1494 1494 1496 1498 1499 1500 1501 1501 1501 1502 1501 1489 1491 1491 1491 1494 1496 1497 1499 1498 1499 1498 1497 1499 1495 1493 1493 1494 1496 1497 1497 1498 1499 1499 1500 1501 1502 1504 1507
1500 1496 1494 1491 1490 1489 1488 1487 1489 1491 1493 1495 1496 1497 1498 1497 1486 1489 1489 1491 1491 1492 1493 1496 1497 1496 1497 1494 1494 1493 1492 1491 1492 1495 1497 1497 1497 1498 1497 1498 1498 1499 1501 1502 1503
1496 1493 1490 1488 1485 1484 1482 1480 1482 1485 1486 1488 1491 1493 1494 1490 1483 1485 1485 1486 1488 1488 1490 1493 1493 1494 1492 1491 1491 1490 1491 1490 1490 1492 1495 1497 1496 1496 1493 1494 1495 1496 1496 1497 1500
1491 1488 1486 1484 1481 1478 1478 1475 1475 1477 1479 1484 1485 1486 1484 1475 1480 1481 1480 1482 1484 1485 1488 1490 1491 1492 1490 1490 1487 1487 1490 1488 1486 1488 1491 1492 1495 1492 1488 1489 1490 1491 1492 1492 1494
1487 1484 1481 1479 1476 1474 1473 1471 1470 1472 1473 1477 1479 1480 1469 1469 1473 1474 1476 1478 1480 1483 1486 1489 1490 1490 1489 1488 1487 1490 1492 1500 1484 1484 1487 1491 1499 1484 1481 1482 1485 1486 1486 1488 1489
1484 1480 1477 1474 1471 1470 1467 1465 1465 1466 1467 1472 1476 1473 1461 1463 1462 1466 1471 1474 1477 1480 1483 1486 1487 1488 1489 1490 1494 1490 1497 1494 1487 1477 1483 1489 1490 1481 1480 1480 1482 1482 1482 1483 1484
1481 1477 1474 1471 1468 1467 1463 1460 1458 1460 1462 1467 1467 1468 1456 1452 1456 1458 1464 1470 1474 1477 1481 1483 1484 1485 1485 1488 1499 1490 1491 1484 1484 1479 1480 1486 1487 1480 1478 1478 1477 1476 1477 1477 1478
1478 1475 1472 1469 1466 1464 1461 1458 1458 1456 1454 1447 1449 1447 1441 1448 1453 1452 1456 1465 1470 1473 1474 1477 1482 1479 1479 1477 1478 1476 1476 1477 1468 1469 1478 1482 1481 1477 1473 1471 1470 1470 1471 1471 1471
1479 1476 1473 1467 1463 1463 1461 1461 1461 1460 1452 1441 1440 1442 1446 1448 1450 1449 1452 1457 1461 1463 1468 1473 1469 1468 1470 1471 1473 1473 1476 1476 1470 1467 1475 1476 1478 1471 1468 1465 1463 1463 1463 1464 1465
1475 1472 1469 1465 1463 1462 1458 1457 1456 1456 1455 1436 1433 1436 1440 1445 1445 1441 1445 1447 1450 1457 1457 1461 1457 1462 1464 1467 1470 1469 1475 1476 1477 1470 1471 1474 1475 1465 1456 1454 1455 1455 1456 1456 1457
1471 1469 1466 1463 1462 1457 1455 1454 1453 1454 1447 1424 1423 1424 1434 1437 1437 1435 1438 1441 1444 1446 1449 1453 1451 1453 1459 1463 1465 1473 1463 1468 1472 1479 1494 1470 1492 1464 1454 1452 1450 1448 1449 1449 1449
1467 1464 1463 1462 1459 1458 1458 1454 1452 1452 1430 1406 1408 1413 1416 1428 1427 1426 1430 1436 1433 1436 1444 1441 1443 1447 1453 1457 1456 1463 1462 1468 1470 1476 1482 1481 1487 1462 1450 1451 1444 1443 1443 1444 1444
1464 1460 1459 1458 1457 1455 1455 1455 1452 1451 1409 1399 1401 1402 1409 1415 1418 1414 1421 1428 1429 1431 1433 1435 1433 1437 1441 1447 1451 1457 1465 1469 1473 1479 1491 1477 1478 1464 1451 1442 1437 1439 1439 1440 1442
1459 1457 1455 1454 1450 1452 1452 1451 1451 1430 1407 1402 1396 1393 1394 1401 1411 1412 1418 1418 1421 1433 1432 1432 1431 1431 1436 1446 1450 1458 1470 1492 1498 1498 1488 1458 1464 1453 1434 1431 1433 1435 1437 1439 1440
1453 1450 1447 1446 1446 1448 1450 1448 1434 1413 1405 1394 1392 1390 1389 1389 1401 1399 1412 1411 1412 1414 1426 1434 1444 1430 1429 1436 1445 1453 1460 1471 1483 1484 1466 1449 1462 1445 1428 1429 1430 1431 1435 1436 1438
1447 1442 1438 1436 1439 1443 1446 1440 1422 1409 1403 1400 1391 1389 1384 1382 1388 1397 1394 1396 1397 1401 1412 1423 1429 1418 1427 1433 1438 1451 1457 1449 1461 1453 1468 1453 1439 1429 1424 1427 1428 1431 1433 1434 1434
1441 1436 1426 1427 1431 1435 1433 1426 1417 1409 1403 1407 1394 1384 1384 1377 1375 1389 1406 1392 1390 1395 1399 1402 1426 1414 1423 1432 1431 1435 1442 1464 1463 1473 1477 1453 1447 1442 1425 1423 1426 1429 1430 1431 1432
1438 1433 1418 1420 1424 1428 1414 1418 1417 1412 1409 1416 1402 1391 1380 1372 1374 1378 1382 1373 1381 1387 1394 1399 1404 1416 1418 1422 1428 1436 1441 1441 1443 1447 1459 1456 1445 1414 1415 1418 1424 1427 1427 1430 1430
1434 1429 1420 1419 1421 1418 1411 1408 1410 1404 1404 1405 1408 1410 1394 1378 1370 1373 1368 1366 1364 1374 1387 1387 1400 1418 1414 1414 1416 1420 1423 1431 1443 1446 1441 1445 1436 1408 1412 1414 1418 1423 1425 1428 1427
1431 1424 1417 1418 1416 1408 1407 1405 1404 1404 1402 1402 1405 1401 1394 1391 1385 1361 1354 1357 1357 1366 1373 1382 1396 1412 1423 1422 1416 1419 1419 1424 1428 1431 1431 1444 1433 1404 1408 1413 1416 1419 1421 1425 1426
1431 1422 1412 1413 1411 1411 1411 1408 1400 1395 1396 1395 1395 1398 1402 1385 1379 1366 1358 1355 1359 1357 1365 1375 1382 1391 1401 1397 1408 1417 1414 1415 1421 1429 1422 1419 1419 1412 1409 1412 1413 1414 1417 1419 1423
1427 1421 1415 1410 1408 1409 1409 1410 1403 1398 1388 1389 1388 1388 1395 1391 1374 1360 1348 1354 1361 1368 1363 1368 1387 1384 1386 1385 1393 1401 1406 1409 1409 1404 1415 1410 1411 1406 1407 1409 1407 1408 1411 1415 1417
1424 1420 1414 1410 1407 1405 1402 1402 1399 1397 1394 1384 1383 1383 1389 1389 1387 1382 1379 1350 1359 1363 1362 1361 1375 1386 1386 1385 1386 1399 1393 1395 1396 1400 1400 1403 1397 1398 1399 1400 1403 1406 1408 1412 1414
1417 1415 1414 1405 1404 1403 1399 1396 1393 1396 1389 1384 1383 1381 1381 1368 1375 1382 1379 1373 1371 1357 1356 1362 1373 1382 1387 1384 1385 1392 1375 1382 1388 1390 1391 1396 1389 1395 1397 1397 1399 1401 1404 1408 1410